This is the latest recevied weather packets stored in our database for station/object DL1BWU. If no packets are shown the sender has not sent any weather packets the latest 10 day(s).
| Time | Temp. | Humidity | Pressure | Rain* | Wind** | Luminosity | Snow |
|---|---|---|---|---|---|---|---|
| 1777827313 | 26.11° C | 32% | 1009.4 hPa | 0 mm | - | - | - |
| 1777826714 | 26.11° C | 32% | 1009.4 hPa | 0 mm | - | - | - |
| 1777826113 | 26.67° C | 32% | 1009.5 hPa | 0 mm | - | - | - |
| 1777825513 | 26.11° C | 34% | 1009.3 hPa | 0 mm | - | - | - |
| 1777824914 | 26.67° C | 32% | 1009.7 hPa | 0 mm | - | - | - |
| 1777824314 | 26.67° C | 31% | 1009.6 hPa | 0 mm | - | - | - |
| 1777823714 | 27.22° C | 31% | 1009.6 hPa | 0 mm | - | - | - |
| 1777823114 | 27.22° C | 31% | 1009.7 hPa | 0 mm | - | - | - |
| 1777822514 | 27.22° C | 30% | 1009.7 hPa | 0 mm | - | - | - |
| 1777821914 | 27.78° C | 30% | 1009.7 hPa | 0 mm | - | - | - |
| 1777821314 | 27.78° C | 30% | 1010 hPa | 0 mm | - | - | - |
| 1777820714 | 27.78° C | 30% | 1010.1 hPa | 0 mm | - | - | - |
| 1777820114 | 27.78° C | 29% | 1010.3 hPa | 0 mm | - | - | - |
| 1777819514 | 28.33° C | 29% | 1010.2 hPa | 0 mm | - | - | - |
| 1777818914 | 28.33° C | 29% | 1010.1 hPa | 0 mm | - | - | - |
| 1777818314 | 28.33° C | 29% | 1010.3 hPa | 0 mm | - | - | - |
| 1777817714 | 28.33° C | 29% | 1010.4 hPa | 0 mm | - | - | - |
| 1777817114 | 28.89° C | 29% | 1010.4 hPa | 0 mm | - | - | - |
| 1777816514 | 29.44° C | 30% | 1010.5 hPa | 0 mm | - | - | - |
| 1777815914 | 29.44° C | 30% | 1010.6 hPa | 0 mm | - | - | - |
| 1777815314 | 29.44° C | 30% | 1010.7 hPa | 0 mm | - | - | - |
| 1777814714 | 28.89° C | 32% | 1010.8 hPa | 0 mm | - | - | - |
| 1777814114 | 28.89° C | 32% | 1010.9 hPa | 0 mm | - | - | - |
| 1777813515 | 28.89° C | 32% | 1011.1 hPa | 0 mm | - | - | - |
| 1777812914 | 28.89° C | 31% | 1011.1 hPa | 0 mm | - | - | - |
* Rain latest hour (hover to see other rain measurements)
** Current wind speed in m/s (hover to see current wind gust speed)